Location: Kile Knob Observatory
(38.6083°N, 79.4792°W)
Time: 13:17:18
(UTC-04:00)

Tiangong 2 - Pass Details

Date: 27 May 2019
Orbit: 376 x 388 km, 42.8° (Epoch: 24 June)

Event Time Altitude Azimuth Distance (km) Brightness Sun altitude
Rises 22:32:45 0° 291° (WNW) 2,233 6.0 -19.0°
Reaches altitude 10° 22:34:49 10° 292° (WNW) 1,379 4.8 -19.2°
Enters shadow 22:37:49 77° 346° (NNW) 386 1.0 -19.6°
